Flag for Belgium Weather past 2 weeks in Antwerp, Belgium

Now
54 °F

Light rain. Mostly cloudy.


Feels Like: 49 °F
Forecast: 44 / 48 °F
Wind: 16 mph from Southwest

Location: Antwerp / Deurne

Current Time: Dec 19, 2014 at 1:42:44 AM

Latest Report: Dec 19, 2014 at 12:50 AM


Visibility: 4 mi

Pressure: 29.92 "Hg

Humidity: 88%

Dew point: 50 °F

Location of AntwerpLocation

Historic Weather in Antwerp — Graph

°F

Antwerp temperature yesterday

Maximum temperature yesterday: 55 °F (at 12:50 PM)
Minimum temperature yesterday: 50 °F (at 2:20 AM)
Average temperature yesterday: 54 °F

Past Weeks' High & Low Weather Summary

 TemperatureHumidityPressure
High55 °F (Dec 18, 12:50 PM)94% (Dec 12, 1:20 PM)30.36 "Hg (Dec 12, 1:20 PM)
Low28 °F (Dec 4, 12:20 AM)57% (Dec 10, 3:50 PM)29.39 "Hg (Dec 12, 11:50 AM)
Average42 °F84%29.96 "Hg
* Reported Dec 4 12:20 AM — Dec 19 12:20 AM, Antwerp, Weather by CustomWeather, © 2014

Note: Actual official high and low records may vary slightly from our data, if they occured in-between our weather recording intervals... More about our weather records

Advertising

Antwerp weather history for previous 24 hours

 ConditionsComfort  
Time TempWeatherWind HumidityBarometerVisibility
12:20 AM
Dec 19
54 °FLight rain. Fog.16 mph88%29.92 "Hg2 mi
11:50 PM
Dec 18
54 °FLight rain. Low clouds.17 mph88%29.92 "Hg2 mi
11:20 PM54 °FLight rain. Mostly cloudy.20 mph88%29.92 "Hg2 mi
10:50 PM55 °FPassing clouds.22 mph82%29.92 "HgN/A
10:20 PM55 °FPassing clouds.20 mph82%29.92 "HgN/A
9:50 PM55 °FPassing clouds.22 mph82%29.92 "HgN/A
9:20 PM55 °FPassing clouds.21 mph82%29.92 "HgN/A
8:50 PM55 °FPassing clouds.18 mph82%29.92 "HgN/A
8:20 PM55 °FPassing clouds.20 mph82%29.92 "HgN/A
7:50 PM55 °FPassing clouds.18 mph82%29.92 "HgN/A
7:20 PM55 °FPassing clouds.18 mph82%29.92 "HgN/A
6:50 PM55 °FPassing clouds.18 mph82%29.89 "HgN/A
6:20 PM55 °FPartly cloudy.18 mph82%29.89 "HgN/A
5:50 PM55 °FPartly cloudy.20 mph82%29.89 "HgN/A
5:20 PM55 °FPartly cloudy.18 mph82%29.89 "HgN/A
4:50 PM55 °FPartly cloudy.18 mph82%29.89 "HgN/A
4:20 PM55 °FBroken clouds.20 mph82%29.89 "HgN/A
3:50 PM55 °FBroken clouds.20 mph82%29.86 "HgN/A
3:20 PM55 °FBroken clouds.16 mph88%29.86 "HgN/A
2:50 PM55 °FBroken clouds.15 mph88%29.86 "HgN/A
2:20 PM55 °FBroken clouds.14 mph88%29.86 "HgN/A
1:50 PM55 °FBroken clouds.14 mph88%29.86 "HgN/A
1:20 PM55 °FBroken clouds.17 mph88%29.86 "HgN/A
12:50 PM55 °FBroken clouds.14 mph82%29.86 "HgN/A
12:20 PM54 °FBroken clouds.12 mph88%29.86 "Hg4 mi
11:50 AM54 °FDrizzle. Broken clouds.12 mph88%29.86 "Hg3 mi
11:20 AM54 °FBroken clouds.12 mph88%29.86 "Hg4 mi
10:50 AM54 °FDrizzle. Broken clouds.12 mph88%29.86 "Hg2 mi
10:20 AM54 °FDrizzle. Broken clouds.10 mph88%29.86 "Hg1 mi
9:50 AM54 °FDrizzle. Broken clouds.10 mph88%29.86 "Hg1 mi
9:20 AM54 °FDrizzle. Broken clouds.9 mph88%29.86 "Hg2 mi
8:50 AM54 °FDrizzle. Broken clouds.10 mph88%29.83 "Hg2 mi
8:20 AM54 °FPartly cloudy.9 mph88%29.83 "HgN/A
7:50 AM52 °FPartly cloudy.10 mph94%29.83 "Hg2 mi
7:20 AM54 °FPartly cloudy.10 mph88%29.83 "Hg5 mi
6:50 AM52 °FFog.10 mph94%29.83 "Hg3 mi
6:20 AM52 °FMostly cloudy.10 mph94%29.83 "Hg2 mi
5:50 AM52 °FMostly cloudy.9 mph94%29.80 "Hg6 mi
5:20 AM52 °FMostly cloudy.9 mph94%29.80 "HgN/A
4:20 AM52 °FFog.10 mph88%29.80 "Hg2 mi
3:50 AM52 °FFog.8 mph94%29.80 "Hg1 mi
3:20 AM52 °FSprinkles. Fog.8 mph88%29.80 "Hg2 mi
2:50 AM52 °FSprinkles. Fog.8 mph88%29.80 "Hg2 mi
2:20 AM50 °FDrizzle. Fog.8 mph94%29.80 "Hg1 mi
1:50 AM52 °FFog.9 mph88%29.80 "Hg2 mi
1:20 AM52 °FLow clouds.8 mph88%29.83 "HgN/A
Weather by CustomWeather, © 2014

See weather overviewHow to use our weather pages